Time,TemperatureF,DewpointF,PressureIn,WindDirection,WindDirectionDegrees,WindSpeedMPH,WindSpeedGustMPH,Humidity,HourlyPrecipIn,Conditions,Clouds,dailyrainin,SoftwareType,DateUTC
2013-05-08 00:02:00,56.5,51.6,30.07,East,90,4.2,9.8,84,0.00,,,0.00,WUHU21636XXSP,2013-05-08 05:02:00,
2013-05-08 00:12:00,56.5,51.6,30.08,East,90,4.0,10.0,84,0.00,,,0.00,WUHU21636XXSP,2013-05-08 05:12:00,
2013-05-08 00:22:00,56.3,51.4,30.06,ESE,112,3.8,12.5,84,0.00,,,0.00,WUHU21636XXSP,2013-05-08 05:22:00,
2013-05-08 00:32:00,56.1,51.6,30.06,East,90,2.9,10.2,85,0.00,,,0.00,WUHU21636XXSP,2013-05-08 05:32:00,
2013-05-08 00:42:00,56.1,51.3,30.07,East,90,4.4,9.3,84,0.00,,,0.00,WUHU21636XXSP,2013-05-08 05:42:00,
2013-05-08 00:52:00,55.9,51.4,30.07,ENE,67,3.8,6.9,85,0.00,,,0.00,WUHU21636XXSP,2013-05-08 05:52:00,
2013-05-08 01:02:00,55.6,51.1,30.07,East,90,7.6,8.7,85,0.00,,,0.00,WUHU21636XXSP,2013-05-08 06:02:00,
2013-05-08 01:12:00,55.6,51.1,30.07,East,90,6.0,9.8,85,0.00,,,0.00,WUHU21636XXSP,2013-05-08 06:12:00,
2013-05-08 01:22:00,55.2,50.7,30.07,East,90,4.0,9.3,85,0.00,,,0.00,WUHU21636XXSP,2013-05-08 06:22:00,
2013-05-08 01:32:00,55.0,50.5,30.07,ENE,67,4.0,7.6,85,0.00,,,0.00,WUHU21636XXSP,2013-05-08 06:32:00,
2013-05-08 01:42:00,55.0,50.5,30.08,ENE,67,4.2,7.1,85,0.00,,,0.00,WUHU21636XXSP,2013-05-08 06:42:00,
2013-05-08 01:52:00,54.7,50.2,30.08,ENE,67,1.5,6.2,85,0.00,,,0.00,WUHU21636XXSP,2013-05-08 06:52:00,
2013-05-08 02:02:00,54.7,50.2,30.08,ENE,67,1.1,3.1,84,0.00,,,0.00,WUHU21636XXSP,2013-05-08 07:02:00,
2013-05-08 02:12:00,54.5,49.6,30.08,ENE,67,4.9,4.9,84,0.00,,,0.00,WUHU21636XXSP,2013-05-08 07:12:00,
2013-05-08 02:22:00,54.3,49.5,30.08,ENE,67,2.2,4.9,84,0.00,,,0.00,WUHU21636XXSP,2013-05-08 07:22:00,
2013-05-08 02:32:00,54.1,49.6,30.08,ENE,67,2.9,4.9,85,0.00,,,0.00,WUHU21636XXSP,2013-05-08 07:32:00,
2013-05-08 02:42:00,54.1,49.6,30.08,ENE,67,0.0,2.9,86,0.00,,,0.00,WUHU21636XXSP,2013-05-08 07:42:00,
2013-05-08 02:52:00,54.1,49.6,30.08,ENE,67,0.0,1.5,85,0.00,,,0.00,WUHU21636XXSP,2013-05-08 07:52:00,
2013-05-08 03:02:00,54.1,49.6,30.09,ENE,67,0.0,0.0,85,0.00,,,0.00,WUHU21636XXSP,2013-05-08 08:02:00,
2013-05-08 03:12:00,54.0,50.0,30.11,NNE,22,4.6,10.7,87,0.00,,,0.00,WUHU21636XXSP,2013-05-08 08:12:00,
2013-05-08 03:22:00,53.8,49.8,30.11,NE,45,2.9,11.1,87,0.00,,,0.00,WUHU21636XXSP,2013-05-08 08:22:00,
2013-05-08 03:32:00,54.1,50.5,30.10,ENE,67,4.2,10.7,88,0.00,,,0.00,WUHU21636XXSP,2013-05-08 08:32:00,
2013-05-08 03:42:00,54.3,50.7,30.11,ENE,67,3.1,4.2,88,0.00,,,0.00,WUHU21636XXSP,2013-05-08 08:42:00,
2013-05-08 03:52:00,54.7,51.1,30.11,ENE,67,0.4,13.6,88,0.00,,,0.00,WUHU21636XXSP,2013-05-08 08:52:00,
2013-05-08 04:02:00,54.7,51.1,30.11,ENE,67,4.0,4.0,88,0.00,,,0.00,WUHU21636XXSP,2013-05-08 09:02:00,
2013-05-08 04:12:00,55.0,51.4,30.11,ENE,67,4.2,4.2,88,0.00,,,0.00,WUHU21636XXSP,2013-05-08 09:12:00,
2013-05-08 04:22:00,55.0,51.4,30.12,NNE,22,12.3,19.0,88,0.00,,,0.00,WUHU21636XXSP,2013-05-08 09:22:00,
2013-05-08 04:32:00,54.3,49.1,30.12,NNE,22,7.3,22.3,83,0.00,,,0.00,WUHU21636XXSP,2013-05-08 09:32:00,
2013-05-08 04:42:00,53.8,48.9,30.12,ENE,67,5.1,14.0,84,0.00,,,0.00,WUHU21636XXSP,2013-05-08 09:42:00,
2013-05-08 04:52:00,53.2,48.7,30.11,ENE,67,2.2,5.1,85,0.00,,,0.00,WUHU21636XXSP,2013-05-08 09:52:00,
2013-05-08 05:02:00,52.9,48.7,30.11,ENE,67,5.5,8.5,86,0.06,,,0.06,WUHU21636XXSP,2013-05-08 10:02:00,
2013-05-08 05:12:00,52.3,48.4,30.10,East,90,4.6,11.8,87,0.08,,,0.08,WUHU21636XXSP,2013-05-08 10:12:00,
2013-05-08 05:22:00,52.0,48.4,30.09,East,90,8.5,13.1,88,0.08,,,0.08,WUHU21636XXSP,2013-05-08 10:22:00,
2013-05-08 05:32:00,51.6,48.4,30.06,East,90,7.8,12.5,89,0.08,,,0.08,WUHU21636XXSP,2013-05-08 10:32:00,
2013-05-08 05:42:00,51.4,48.2,30.06,East,90,7.6,14.5,89,0.10,,,0.10,WUHU21636XXSP,2013-05-08 10:42:00,
2013-05-08 05:52:00,51.1,48.2,30.04,SE,135,6.7,13.8,90,0.10,,,0.10,WUHU21636XXSP,2013-05-08 10:52:00,
2013-05-08 06:02:00,51.1,48.2,30.03,SE,135,6.9,13.4,90,0.04,,,0.10,WUHU21636XXSP,2013-05-08 11:02:00,
2013-05-08 06:13:00,50.9,48.0,30.03,SE,135,3.8,17.6,90,0.04,,,0.10,WUHU21636XXSP,2013-05-08 11:13:00,
2013-05-08 06:23:00,50.7,48.0,30.03,SE,135,1.3,5.8,91,0.04,,,0.10,WUHU21636XXSP,2013-05-08 11:23:00,
2013-05-08 06:33:00,50.7,48.0,30.05,SE,135,0.0,1.3,90,0.04,,,0.10,WUHU21636XXSP,2013-05-08 11:33:00,
2013-05-08 06:43:00,50.5,47.7,30.06,NE,45,6.4,13.1,90,0.04,,,0.10,WUHU21636XXSP,2013-05-08 11:43:00,
2013-05-08 06:53:00,50.4,47.5,30.06,NE,45,1.7,10.0,90,0.04,,,0.10,WUHU21636XXSP,2013-05-08 11:53:00,
2013-05-08 07:03:00,50.2,47.3,30.06,NE,45,0.0,2.6,90,0.00,,,0.10,WUHU21636XXSP,2013-05-08 12:03:00,
2013-05-08 07:13:00,50.4,47.5,30.06,NE,45,0.0,0.0,90,0.00,,,0.10,WUHU21636XXSP,2013-05-08 12:13:00,
2013-05-08 07:23:00,50.5,47.7,30.07,NE,45,0.0,0.0,90,0.00,,,0.10,WUHU21636XXSP,2013-05-08 12:23:00,
2013-05-08 07:33:00,50.5,47.7,30.07,NE,45,0.0,2.6,90,0.00,,,0.10,WUHU21636XXSP,2013-05-08 12:33:00,
2013-05-08 07:43:00,50.7,47.8,30.07,NE,45,0.0,0.0,91,0.00,,,0.10,WUHU21636XXSP,2013-05-08 12:43:00,
2013-05-08 07:53:00,50.9,48.2,30.08,NE,45,0.0,0.0,91,0.00,,,0.10,WUHU21636XXSP,2013-05-08 12:53:00,
2013-05-08 08:03:00,51.4,48.7,30.08,NE,45,3.3,3.3,91,0.00,,,0.10,WUHU21636XXSP,2013-05-08 13:03:00,
2013-05-08 08:13:00,52.0,49.3,30.08,NE,45,2.6,3.3,91,0.00,,,0.10,WUHU21636XXSP,2013-05-08 13:13:00,
2013-05-08 08:23:00,52.3,49.6,30.08,NE,45,0.0,2.6,91,0.00,,,0.10,WUHU21636XXSP,2013-05-08 13:23:00,
2013-05-08 08:33:00,52.5,49.8,30.09,NE,45,0.0,0.0,91,0.00,,,0.10,WUHU21636XXSP,2013-05-08 13:33:00,
2013-05-08 08:43:00,52.9,50.2,30.09,ENE,67,0.0,0.0,91,0.00,,,0.10,WUHU21636XXSP,2013-05-08 13:43:00,
2013-05-08 08:53:00,53.1,50.7,30.09,ENE,67,0.0,0.0,92,0.00,,,0.10,WUHU21636XXSP,2013-05-08 13:53:00,
2013-05-08 09:03:00,53.2,50.9,30.10,ENE,67,0.0,0.0,92,0.00,,,0.10,WUHU21636XXSP,2013-05-08 14:03:00,
2013-05-08 09:13:00,53.2,50.9,30.10,ENE,67,1.5,1.7,92,0.00,,,0.10,WUHU21636XXSP,2013-05-08 14:13:00,
2013-05-08 09:23:00,53.4,51.1,30.10,ENE,67,0.0,1.7,92,0.00,,,0.10,WUHU21636XXSP,2013-05-08 14:23:00,
2013-05-08 09:33:00,53.8,51.4,30.11,ENE,67,0.0,0.0,92,0.00,,,0.10,WUHU21636XXSP,2013-05-08 14:33:00,
2013-05-08 09:43:00,54.0,51.3,30.10,ENE,67,0.0,0.0,91,0.00,,,0.10,WUHU21636XXSP,2013-05-08 14:43:00,
2013-05-08 09:53:00,54.9,52.0,30.10,ENE,67,2.0,2.0,90,0.00,,,0.10,WUHU21636XXSP,2013-05-08 14:53:00,
2013-05-08 10:03:00,55.0,52.2,30.11,ENE,67,0.0,2.2,89,0.00,,,0.10,WUHU21636XXSP,2013-05-08 15:03:00,
2013-05-08 10:13:00,55.8,52.5,30.10,ENE,67,0.0,0.0,89,0.00,,,0.10,WUHU21636XXSP,2013-05-08 15:13:00,
2013-05-08 10:23:00,56.5,52.9,30.11,NE,45,0.0,7.8,88,0.00,,,0.10,WUHU21636XXSP,2013-05-08 15:23:00,
2013-05-08 10:33:00,56.8,53.2,30.11,NE,45,0.0,4.0,87,0.00,,,0.10,WUHU21636XXSP,2013-05-08 15:33:00,
2013-05-08 10:43:00,57.6,53.2,30.11,NE,45,0.0,4.9,86,0.00,,,0.10,WUHU21636XXSP,2013-05-08 15:43:00,
2013-05-08 10:53:00,57.7,53.2,30.11,NNE,22,1.5,6.4,85,0.00,,,0.10,WUHU21636XXSP,2013-05-08 15:53:00,
2013-05-08 11:03:00,58.6,53.4,30.12,NE,45,0.0,8.5,83,0.00,,,0.10,WUHU21636XXSP,2013-05-08 16:03:00,
2013-05-08 11:13:00,59.0,53.8,30.12,ENE,67,0.0,3.1,83,0.00,,,0.10,WUHU21636XXSP,2013-05-08 16:13:00,
2013-05-08 11:23:00,59.4,53.8,30.11,ENE,67,4.2,6.4,82,0.00,,,0.10,WUHU21636XXSP,2013-05-08 16:23:00,
2013-05-08 11:33:00,60.4,54.9,30.11,ENE,67,3.8,11.1,82,0.00,,,0.10,WUHU21636XXSP,2013-05-08 16:33:00,
2013-05-08 11:43:00,61.2,54.5,30.11,NE,45,6.4,14.5,79,0.00,,,0.10,WUHU21636XXSP,2013-05-08 16:43:00,
2013-05-08 11:53:00,61.5,54.1,30.11,NE,45,7.1,10.2,77,0.00,,,0.10,WUHU21636XXSP,2013-05-08 16:53:00,
2013-05-08 12:03:00,62.4,55.0,30.11,NE,45,1.3,13.8,77,0.00,,,0.10,WUHU21636XXSP,2013-05-08 17:03:00,
2013-05-08 12:13:00,63.1,55.0,30.11,North,0,3.1,10.7,75,0.00,,,0.10,WUHU21636XXSP,2013-05-08 17:13:00,
2013-05-08 12:23:00,64.0,57.0,30.11,NNE,22,3.1,9.8,78,0.00,,,0.10,WUHU21636XXSP,2013-05-08 17:23:00,
2013-05-08 12:33:00,64.6,57.0,30.11,ENE,67,6.0,13.4,77,0.00,,,0.10,WUHU21636XXSP,2013-05-08 17:33:00,
2013-05-08 12:43:00,64.8,56.5,30.11,NE,45,0.0,10.9,73,0.00,,,0.10,WUHU21636XXSP,2013-05-08 17:43:00,
2013-05-08 12:53:00,65.1,56.5,30.10,NE,45,0.0,9.3,73,0.00,,,0.10,WUHU21636XXSP,2013-05-08 17:53:00,
2013-05-08 13:03:00,65.1,55.4,30.10,North,0,2.0,6.4,69,0.00,,,0.10,WUHU21636XXSP,2013-05-08 18:03:00,
2013-05-08 13:13:00,65.8,54.5,30.10,ENE,67,4.6,12.3,67,0.00,,,0.10,WUHU21636XXSP,2013-05-08 18:13:00,
2013-05-08 13:23:00,67.3,56.3,30.10,NE,45,4.4,11.4,68,0.00,,,0.10,WUHU21636XXSP,2013-05-08 18:23:00,
2013-05-08 13:33:00,67.8,54.7,30.09,NNE,22,7.6,12.0,63,0.00,,,0.10,WUHU21636XXSP,2013-05-08 18:33:00,
2013-05-08 13:43:00,68.2,56.3,30.09,NNE,22,6.7,15.4,66,0.00,,,0.10,WUHU21636XXSP,2013-05-08 18:43:00,
2013-05-08 13:53:00,68.5,52.2,30.09,NE,45,12.3,17.4,56,0.00,,,0.10,WUHU21636XXSP,2013-05-08 18:53:00,
2013-05-08 14:03:00,68.4,54.0,30.09,NE,45,7.1,12.5,60,0.00,,,0.10,WUHU21636XXSP,2013-05-08 19:03:00,
2013-05-08 14:13:00,68.7,54.3,30.09,NNE,22,3.3,12.0,60,0.00,,,0.10,WUHU21636XXSP,2013-05-08 19:13:00,
2013-05-08 14:23:00,70.5,57.2,30.08,NE,45,7.1,11.6,63,0.00,,,0.10,WUHU21636XXSP,2013-05-08 19:23:00,
2013-05-08 14:33:00,72.3,57.6,30.08,East,90,2.2,16.1,60,0.00,,,0.10,WUHU21636XXSP,2013-05-08 19:33:00,
2013-05-08 14:43:00,73.0,56.3,30.08,NE,45,3.1,16.3,56,0.00,,,0.10,WUHU21636XXSP,2013-05-08 19:43:00,
2013-05-08 14:53:00,73.6,55.8,30.08,ENE,67,6.9,18.1,54,0.00,,,0.10,WUHU21636XXSP,2013-05-08 19:53:00,
2013-05-08 15:03:00,74.1,56.8,30.08,NNE,22,7.1,17.0,52,0.00,,,0.10,WUHU21636XXSP,2013-05-08 20:03:00,
2013-05-08 15:13:00,74.7,56.3,30.07,NE,45,8.5,16.3,53,0.00,,,0.10,WUHU21636XXSP,2013-05-08 20:13:00,
2013-05-08 15:23:00,75.0,55.2,30.07,NE,45,8.9,16.3,50,0.00,,,0.10,WUHU21636XXSP,2013-05-08 20:23:00,
2013-05-08 15:33:00,75.4,55.4,30.06,NE,45,4.9,13.1,50,0.00,,,0.10,WUHU21636XXSP,2013-05-08 20:33:00,
2013-05-08 15:43:00,75.9,55.4,30.06,ENE,67,5.5,17.4,49,0.00,,,0.10,WUHU21636XXSP,2013-05-08 20:43:00,
2013-05-08 15:53:00,76.6,54.9,30.06,ENE,67,3.3,19.2,47,0.00,,,0.10,WUHU21636XXSP,2013-05-08 20:53:00,
2013-05-08 16:03:00,76.8,54.9,30.06,ENE,67,7.8,21.6,47,0.00,,,0.10,WUHU21636XXSP,2013-05-08 21:03:00,
2013-05-08 16:13:00,76.5,53.4,30.06,ENE,67,8.7,19.0,45,0.00,,,0.10,WUHU21636XXSP,2013-05-08 21:13:00,
2013-05-08 16:23:00,76.8,55.6,30.05,East,90,7.6,20.8,48,0.00,,,0.10,WUHU21636XXSP,2013-05-08 21:23:00,
2013-05-08 16:33:00,77.2,53.4,30.05,ESE,112,9.6,18.3,44,0.00,,,0.10,WUHU21636XXSP,2013-05-08 21:33:00,
2013-05-08 16:43:00,76.6,51.1,30.05,ENE,67,11.4,22.5,41,0.00,,,0.10,WUHU21636XXSP,2013-05-08 21:43:00,
2013-05-08 16:53:00,76.6,52.3,30.05,ENE,67,11.1,18.7,43,0.00,,,0.10,WUHU21636XXSP,2013-05-08 21:53:00,
2013-05-08 17:03:00,76.1,50.5,30.05,ENE,67,10.2,21.9,41,0.00,,,0.10,WUHU21636XXSP,2013-05-08 22:03:00,
2013-05-08 17:13:00,76.6,52.3,30.05,ENE,67,4.9,16.5,43,0.00,,,0.10,WUHU21636XXSP,2013-05-08 22:13:00,
2013-05-08 17:23:00,76.6,51.1,30.05,East,90,10.2,19.4,41,0.00,,,0.10,WUHU21636XXSP,2013-05-08 22:23:00,
2013-05-08 17:33:00,76.5,52.2,30.05,East,90,6.7,19.4,43,0.00,,,0.10,WUHU21636XXSP,2013-05-08 22:33:00,
2013-05-08 17:43:00,76.6,51.8,30.05,East,90,8.0,17.2,42,0.00,,,0.10,WUHU21636XXSP,2013-05-08 22:43:00,
2013-05-08 17:53:00,76.6,51.8,30.06,ENE,67,13.1,21.9,42,0.00,,,0.10,WUHU21636XXSP,2013-05-08 22:53:00,
2013-05-08 18:03:00,76.5,51.6,30.06,ENE,67,6.7,17.8,42,0.00,,,0.10,WUHU21636XXSP,2013-05-08 23:03:00,
2013-05-08 18:13:00,76.3,51.4,30.06,ENE,67,10.2,18.5,42,0.00,,,0.10,WUHU21636XXSP,2013-05-08 23:13:00,
2013-05-08 18:23:00,75.7,51.4,30.06,ENE,67,10.9,14.7,43,0.00,,,0.10,WUHU21636XXSP,2013-05-08 23:23:00,
2013-05-08 18:33:00,75.6,50.7,30.06,ENE,67,6.7,16.5,42,0.00,,,0.10,WUHU21636XXSP,2013-05-08 23:33:00,
2013-05-08 18:43:00,75.4,51.3,30.06,ENE,67,4.2,21.9,43,0.00,,,0.10,WUHU21636XXSP,2013-05-08 23:43:00,
2013-05-08 18:53:00,74.8,50.7,30.06,East,90,4.6,16.5,43,0.00,,,0.10,WUHU21636XXSP,2013-05-08 23:53:00,
2013-05-08 19:03:00,74.8,50.0,30.06,NE,45,8.7,14.7,42,0.00,,,0.10,WUHU21636XXSP,2013-05-09 00:03:00,
2013-05-08 19:13:00,73.8,48.6,30.07,ENE,67,8.0,13.6,41,0.00,,,0.10,WUHU21636XXSP,2013-05-09 00:13:00,
2013-05-08 19:23:00,73.2,48.6,30.07,East,90,4.2,11.1,42,0.00,,,0.10,WUHU21636XXSP,2013-05-09 00:23:00,
2013-05-08 19:33:00,72.7,47.5,30.07,East,90,9.1,14.3,41,0.00,,,0.10,WUHU21636XXSP,2013-05-09 00:33:00,
2013-05-08 19:43:00,72.5,48.0,30.07,ENE,67,6.0,12.3,42,0.00,,,0.10,WUHU21636XXSP,2013-05-09 00:43:00,
2013-05-08 19:53:00,72.1,47.7,30.07,ENE,67,1.3,10.7,42,0.00,,,0.10,WUHU21636XXSP,2013-05-09 00:53:00,
2013-05-08 20:03:00,71.2,47.5,30.06,ENE,67,3.3,8.2,43,0.00,,,0.10,WUHU21636XXSP,2013-05-09 01:03:00,
2013-05-08 20:13:00,70.5,47.3,30.06,ENE,67,4.6,6.4,44,0.00,,,0.10,WUHU21636XXSP,2013-05-09 01:13:00,
2013-05-08 20:23:00,70.0,46.9,30.06,ENE,67,0.0,5.8,44,0.00,,,0.10,WUHU21636XXSP,2013-05-09 01:23:00,
2013-05-08 20:33:00,69.3,46.8,30.08,ENE,67,3.5,3.5,45,0.00,,,0.10,WUHU21636XXSP,2013-05-09 01:33:00,
2013-05-08 20:43:00,68.5,46.8,30.09,ENE,67,0.0,3.8,46,0.00,,,0.10,WUHU21636XXSP,2013-05-09 01:43:00,
2013-05-08 20:53:00,68.0,46.2,30.09,ENE,67,0.6,0.6,46,0.00,,,0.10,WUHU21636XXSP,2013-05-09 01:53:00,
2013-05-08 21:03:00,67.5,46.9,30.09,ENE,67,0.0,0.6,48,0.00,,,0.10,WUHU21636XXSP,2013-05-09 02:03:00,
2013-05-08 21:13:00,67.1,47.3,30.09,ENE,67,0.0,2.0,49,0.00,,,0.10,WUHU21636XXSP,2013-05-09 02:13:00,
2013-05-08 21:23:00,66.7,46.9,30.09,ENE,67,0.0,1.3,49,0.00,,,0.10,WUHU21636XXSP,2013-05-09 02:23:00,
2013-05-08 21:33:00,66.4,47.1,30.09,ENE,67,2.9,2.9,51,0.00,,,0.10,WUHU21636XXSP,2013-05-09 02:33:00,
2013-05-08 21:43:00,66.0,47.3,30.10,ENE,67,1.5,2.9,51,0.00,,,0.10,WUHU21636XXSP,2013-05-09 02:43:00,
2013-05-08 21:53:00,65.8,47.7,30.10,ENE,67,1.5,1.5,52,0.00,,,0.10,WUHU21636XXSP,2013-05-09 02:53:00,
2013-05-08 22:03:00,65.3,47.7,30.11,ENE,67,0.0,1.5,53,0.00,,,0.10,WUHU21636XXSP,2013-05-09 03:03:00,
2013-05-08 22:13:00,64.6,47.3,30.11,ENE,67,1.3,1.3,54,0.00,,,0.10,WUHU21636XXSP,2013-05-09 03:13:00,
2013-05-08 22:23:00,63.3,48.2,30.10,WNW,292,1.7,6.2,58,0.00,,,0.10,WUHU21636XXSP,2013-05-09 03:23:00,
2013-05-08 22:33:00,62.2,48.9,30.11,North,0,4.9,12.7,62,0.00,,,0.10,WUHU21636XXSP,2013-05-09 03:33:00,
2013-05-08 22:43:00,61.7,48.6,30.10,North,0,4.2,10.2,62,0.00,,,0.10,WUHU21636XXSP,2013-05-09 03:43:00,
2013-05-08 22:53:00,61.7,47.7,30.10,NNE,22,5.5,7.3,60,0.00,,,0.10,WUHU21636XXSP,2013-05-09 03:53:00,
2013-05-08 23:03:00,61.7,46.8,30.10,East,90,3.1,5.5,58,0.00,,,0.10,WUHU21636XXSP,2013-05-09 04:03:00,
2013-05-08 23:13:00,61.5,46.6,30.10,East,90,4.6,6.4,58,0.00,,,0.10,WUHU21636XXSP,2013-05-09 04:13:00,
2013-05-08 23:23:00,61.3,47.3,30.10,NE,45,5.3,11.6,60,0.00,,,0.10,WUHU21636XXSP,2013-05-09 04:23:00,
2013-05-08 23:33:00,60.8,47.3,30.10,ENE,67,7.6,13.4,61,0.00,,,0.10,WUHU21636XXSP,2013-05-09 04:33:00,
2013-05-08 23:43:00,60.4,47.3,30.10,East,90,4.6,12.3,62,0.00,,,0.10,WUHU21636XXSP,2013-05-09 04:43:00,
2013-05-08 23:53:00,59.9,47.1,30.11,ENE,67,4.2,13.6,63,0.00,,,0.10,WUHU21636XXSP,2013-05-09 04:53:00,